STARLINK-33763, 63452

Orbit data source: Space-Track

STARLINK-33763, 63452 is a payload satellite owned by SpaceX/Seattle (US) in LEO that was launched on Fri, 04 Apr 2025 UTC via an FALCON 9 launch vehicle from the Air Force Western Test Range (AFWTR). Payload-class satellites include a variety of spacecraft equipped with specific instruments for various scientific and technological missions. These include communications satellites like Starlink; space stations such as the ISS; scientific satellites like the Hubble; Earth observation satellites from companies like Planet Labs, Umbra, and HawkEye 360; GPS; miniature CubeSats for education and research; and military/defense satellites.

Loading next visibility...
Identifier
63452, 2025-069V
Orbit
LEO
Country
Flag of USUS
Related business
Manufacturer
SpaceX/Seattle
Mission
Operational Commercial Communications
Bus & Motor
STARLINK V2MO, Unknown motor
Mass
575 kg wet, ~530 kg dry
Launch date (UTC)
2025-04-04 (8 months ago)
Launch vehicle
FALCON 9
Launch site
Air Force Western Test Range (AFWTR)
Object type
Payload
Rocket body
Debris
Shape & HBR
Box + 2 Pan, 17.7 m
Radar Cross Section
36.964 m², Large (>1 m²)

Expand to show TLE details & history
Last TLE update: 19 hours ago

TLE from 19 hours ago
0 STARLINK-33763
1 63452U 25069V   25348.82071180  .00016446  00000-0  56604-3 0  9996
2 63452  53.1570 176.4733 0001103  94.0399 266.0727 15.30206219 40411
Epoch: 2025-12-14T19:41Z
TLE epoch observation values (Epoch: 2025-12-14T19:41:49.499Z)
Latitude
-0.00009°
Longitude
157.28885°
Altitude
476.148 km
Speed
7.629 km/s
True Right ascension
11h 45m 53s
True Declination
0° 00' 00"
Sunlit
Object was in daylight at epoch
Visualization orbit readout
Latitude
Unknown
Longitude
Unknown
Altitude
Unknown
Speed
Unknown
Apparent Right ascension
Unknown
Apparent Declination
Unknown
Sunlit
N/A
Visualization observer readout
Local Sidereal Time
13:19:54
Azimuth
Unknown
Elevation
Unknown
Doppler factor
Unknown
Orbital elements
Apogee altitude
476.209 km
Perigee altitude
474.697 km
Semi-major axis
6,853.59 km
Eccentricity
0.00011
Inclination
53.157°
RAAN
176.4733°
Arg. of periapsis
94.0399°
True anomaly
266.06009°
Mean anomaly
266.0727°
Eccentric anomaly
266.0664°
Mean motion
3.8253 °/min
Orbital period
94.11 mins
BSTAR
0.00056604
Loading maneuver chart data...
Computing Atmospheric mass density...
Loading historical data...
Loading historical data...
Loading historical data...
Loading historical data...
Loading historical data...
Loading historical data...
Loading historical data...

Documentation

Showing up to 5 results
|